Previsão horária em Bolshie Klochki

Hoje, 2 Março, Terça-feira

Tempo Temperatura Precipitação Vento Pressão Humidade
00:00 0°C° 0 mm 5 m/s 738 mmHg 89%
01:00 0°C° 0 mm 5 m/s 738 mmHg 89%
02:00 0°C° 0 mm 5 m/s 737 mmHg 90%
03:00 -1°C° 0 mm 5 m/s 737 mmHg 89%
04:00 -1°C° 0 mm 5 m/s 737 mmHg 89%
05:00 -1°C° 0 mm 5 m/s 736 mmHg 88%
06:00 -1°C° 0 mm 5 m/s 736 mmHg 88%
07:00 -1°C° 0 mm 5 m/s 736 mmHg 88%
08:00 -1°C° 0 mm 5 m/s 736 mmHg 87%
09:00 -2°C° 0.1 mm 5 m/s 736 mmHg 90%
10:00 -2°C° 0.1 mm 5 m/s 736 mmHg 92%
11:00 -2°C° 0.1 mm 5 m/s 736 mmHg 94%
12:00 -1°C° 0.1 mm 5 m/s 736 mmHg 89%
13:00 -1°C° 0.1 mm 5 m/s 736 mmHg 84%
14:00 0°C° 0.1 mm 5 m/s 736 mmHg 78%
15:00 -1°C° 0 mm 5 m/s 736 mmHg 78%
16:00 -1°C° 0 mm 5 m/s 737 mmHg 78%
17:00 -2°C° 0 mm 5 m/s 737 mmHg 78%
18:00 -2°C° 0 mm 5 m/s 738 mmHg 80%
19:00 -2°C° 0 mm 5 m/s 738 mmHg 81%
20:00 -4°C° 0 mm 5 m/s 739 mmHg 83%
21:00 -4°C° 0 mm 5 m/s 739 mmHg 85%
22:00 -3°C° 0 mm 4 m/s 739 mmHg 87%
23:00 -4°C° 0 mm 4 m/s 740 mmHg 89%

Amanhã, 3 Março, Quarta-feira

Tempo Temperatura Precipitação Vento Pressão Humidade
00:00 -4°C° 0.1 mm 4 m/s 740 mmHg 88%
01:00 -4°C° 0.1 mm 4 m/s 741 mmHg 87%
02:00 -4°C° 0.1 mm 4 m/s 741 mmHg 86%
03:00 -4°C° 0 mm 4 m/s 741 mmHg 86%
04:00 -4°C° 0 mm 4 m/s 741 mmHg 87%
05:00 -5°C° 0 mm 3 m/s 741 mmHg 87%
06:00 -4°C° 0 mm 4 m/s 741 mmHg 86%
07:00 -4°C° 0 mm 4 m/s 741 mmHg 84%
08:00 -5°C° 0 mm 5 m/s 741 mmHg 83%
09:00 -4°C° 0 mm 5 m/s 741 mmHg 82%
10:00 -4°C° 0 mm 5 m/s 740 mmHg 81%
11:00 -4°C° 0 mm 5 m/s 740 mmHg 80%
12:00 -4°C° 0 mm 5 m/s 740 mmHg 81%
13:00 -4°C° 0 mm 5 m/s 740 mmHg 82%
14:00 -4°C° 0 mm 5 m/s 739 mmHg 83%
15:00 -4°C° 0 mm 5 m/s 739 mmHg 82%
16:00 -3°C° 0 mm 4 m/s 738 mmHg 82%
17:00 -3°C° 0 mm 4 m/s 738 mmHg 81%
18:00 -3°C° 0.1 mm 4 m/s 737 mmHg 85%
19:00 -2°C° 0.1 mm 4 m/s 737 mmHg 89%
20:00 -2°C° 0.1 mm 4 m/s 736 mmHg 93%
21:00 -2°C° 0.2 mm 4 m/s 735 mmHg 92%
22:00 -2°C° 0.2 mm 5 m/s 734 mmHg 91%
23:00 -2°C° 0.2 mm 5 m/s 733 mmHg 89%

Depois de amanhã, 4 Março, Quinta-feira

Tempo Temperatura Precipitação Vento Pressão Humidade
00:00 -2°C° 0 mm 5 m/s 733 mmHg 87%
01:00 -2°C° 0 mm 5 m/s 732 mmHg 85%
02:00 -2°C° 0 mm 5 m/s 731 mmHg 83%
03:00 -2°C° 0 mm 5 m/s 731 mmHg 85%
04:00 -2°C° 0 mm 5 m/s 730 mmHg 87%
05:00 -2°C° 0 mm 5 m/s 729 mmHg 89%
06:00 -2°C° 0.2 mm 4 m/s 729 mmHg 91%
07:00 -2°C° 0.2 mm 4 m/s 729 mmHg 93%
08:00 -2°C° 0.2 mm 4 m/s 728 mmHg 95%
09:00 -2°C° 0.4 mm 4 m/s 728 mmHg 95%
10:00 -2°C° 0.4 mm 4 m/s 727 mmHg 95%
11:00 -2°C° 0.4 mm 4 m/s 727 mmHg 94%
12:00 -2°C° 0.3 mm 4 m/s 727 mmHg 85%
13:00 -2°C° 0.3 mm 4 m/s 727 mmHg 76%
14:00 -2°C° 0.3 mm 4 m/s 728 mmHg 67%
15:00 -3°C° 0 mm 4 m/s 728 mmHg 69%
16:00 -4°C° 0 mm 3 m/s 728 mmHg 71%
17:00 -5°C° 0 mm 3 m/s 728 mmHg 73%
18:00 -6°C° 0 mm 3 m/s 729 mmHg 77%
19:00 -5°C° 0 mm 2 m/s 729 mmHg 82%
20:00 -6°C° 0 mm 2 m/s 730 mmHg 86%
21:00 -6°C° 0 mm 2 m/s 730 mmHg 88%
22:00 -6°C° 0 mm 1 m/s 730 mmHg 90%
23:00 -6°C° 0 mm 1 m/s 731 mmHg 92%

5 Março, Sexta-feira

Tempo Temperatura Precipitação Vento Pressão Humidade
00:00 -6°C° 0 mm 1 m/s 731 mmHg 93%
01:00 -7°C° 0 mm 1 m/s 731 mmHg 94%
02:00 -7°C° 0 mm 1 m/s 732 mmHg 94%
03:00 -7°C° 0 mm 1 m/s 732 mmHg 95%
04:00 -7°C° 0 mm 1 m/s 732 mmHg 95%
05:00 -6°C° 0 mm 1 m/s 732 mmHg 95%
06:00 -6°C° 0.1 mm 1 m/s 733 mmHg 92%
07:00 -7°C° 0.1 mm 2 m/s 733 mmHg 90%
08:00 -8°C° 0.1 mm 3 m/s 733 mmHg 88%
09:00 -6°C° 0 mm 2 m/s 733 mmHg 81%
10:00 -6°C° 0 mm 2 m/s 734 mmHg 74%
11:00 -5°C° 0 mm 2 m/s 734 mmHg 67%
12:00 -5°C° 0 mm 2 m/s 734 mmHg 66%
13:00 -5°C° 0 mm 2 m/s 734 mmHg 65%
14:00 -4°C° 0 mm 2 m/s 735 mmHg 64%
15:00 -5°C° 0 mm 2 m/s 735 mmHg 68%
16:00 -6°C° 0 mm 2 m/s 735 mmHg 71%
17:00 -6°C° 0 mm 2 m/s 735 mmHg 75%
18:00 -7°C° 0 mm 2 m/s 735 mmHg 79%
19:00 -7°C° 0 mm 1 m/s 736 mmHg 82%
20:00 -8°C° 0 mm 1 m/s 736 mmHg 86%
21:00 -8°C° 0 mm 1 m/s 736 mmHg 87%
22:00 -8°C° 0 mm 1 m/s 736 mmHg 88%
23:00 -9°C° 0 mm 1 m/s 737 mmHg 89%

6 Março, Sábado

Tempo Temperatura Precipitação Vento Pressão Humidade
00:00 -9°C° 0 mm 1 m/s 737 mmHg 90%
01:00 -9°C° 0 mm 1 m/s 737 mmHg 91%
02:00 -9°C° 0 mm 1 m/s 737 mmHg 92%
03:00 -9°C° 0 mm 1 m/s 737 mmHg 93%
04:00 -9°C° 0 mm 1 m/s 738 mmHg 94%
05:00 -12°C° 0 mm 2 m/s 738 mmHg 95%
06:00 -10°C° 0 mm 2 m/s 738 mmHg 92%
07:00 -10°C° 0 mm 2 m/s 738 mmHg 90%
08:00 -10°C° 0 mm 3 m/s 739 mmHg 88%
09:00 -10°C° 0 mm 3 m/s 739 mmHg 80%
10:00 -10°C° 0 mm 3 m/s 739 mmHg 73%
11:00 -10°C° 0 mm 4 m/s 739 mmHg 66%
12:00 -9°C° 0 mm 3 m/s 739 mmHg 64%
13:00 -9°C° 0 mm 3 m/s 739 mmHg 63%
14:00 -8°C° 0 mm 3 m/s 739 mmHg 61%
15:00 -9°C° 0 mm 3 m/s 739 mmHg 65%
16:00 -8°C° 0 mm 2 m/s 738 mmHg 70%
17:00 -8°C° 0 mm 2 m/s 738 mmHg 74%
18:00 -9°C° 0 mm 3 m/s 737 mmHg 74%
19:00 -9°C° 0 mm 3 m/s 737 mmHg 75%
20:00 -10°C° 0 mm 4 m/s 736 mmHg 76%
21:00 -10°C° 0 mm 4 m/s 735 mmHg 79%
22:00 -11°C° 0 mm 5 m/s 734 mmHg 82%
23:00 -11°C° 0 mm 6 m/s 733 mmHg 84%

7 Março, Domingo

Tempo Temperatura Precipitação Vento Pressão Humidade
00:00 -10°C° 0.4 mm 6 m/s 731 mmHg 87%
01:00 -10°C° 0.4 mm 6 m/s 730 mmHg 89%
02:00 -9°C° 0.4 mm 6 m/s 729 mmHg 91%
03:00 -8°C° 0.3 mm 6 m/s 728 mmHg 92%
04:00 -7°C° 0.3 mm 5 m/s 728 mmHg 92%
05:00 -6°C° 0.3 mm 5 m/s 727 mmHg 93%
06:00 -6°C° 0.1 mm 5 m/s 727 mmHg 89%
07:00 -5°C° 0.1 mm 5 m/s 727 mmHg 85%
08:00 -5°C° 0.1 mm 5 m/s 727 mmHg 81%
09:00 -4°C° 0.1 mm 4 m/s 727 mmHg 84%
10:00 -4°C° 0.1 mm 4 m/s 727 mmHg 87%
11:00 -4°C° 0.1 mm 3 m/s 726 mmHg 90%
12:00 -3°C° 0.5 mm 4 m/s 726 mmHg 88%
13:00 -2°C° 0.5 mm 5 m/s 725 mmHg 86%
14:00 -3°C° 0.5 mm 6 m/s 725 mmHg 84%
15:00 -3°C° 0.3 mm 7 m/s 724 mmHg 87%
16:00 -4°C° 0.3 mm 8 m/s 723 mmHg 89%
17:00 -4°C° 0.3 mm 8 m/s 723 mmHg 92%
18:00 -4°C° 1.2 mm 7 m/s 723 mmHg 91%
19:00 -5°C° 1.2 mm 6 m/s 723 mmHg 91%
20:00 -7°C° 1.2 mm 4 m/s 723 mmHg 90%
21:00 -8°C° 0.2 mm 4 m/s 723 mmHg 86%
22:00 -8°C° 0.2 mm 4 m/s 723 mmHg 83%
23:00 -9°C° 0.2 mm 4 m/s 724 mmHg 80%
Mostrar mais